Meteo pe oră la Dahab

Astăzi, 22 Aprilie, Joi

Timp Temperatura Precipitaţii Vânt Presiune Umiditate
00:00 +27°C° 0 mm 3 m/s 713 mmHg 29%
01:00 +27°C° 0 mm 4 m/s 713 mmHg 28%
02:00 +27°C° 0 mm 4 m/s 713 mmHg 28%
03:00 +27°C° 0 mm 4 m/s 713 mmHg 29%
04:00 +26°C° 0 mm 4 m/s 713 mmHg 30%
05:00 +26°C° 0 mm 4 m/s 713 mmHg 31%
06:00 +27°C° 0 mm 4 m/s 713 mmHg 28%
07:00 +29°C° 0 mm 4 m/s 714 mmHg 25%
08:00 +32°C° 0 mm 5 m/s 714 mmHg 20%
09:00 +33°C° 0 mm 5 m/s 714 mmHg 18%
10:00 +35°C° 0 mm 5 m/s 714 mmHg 16%
11:00 +36°C° 0 mm 6 m/s 714 mmHg 14%
12:00 +36°C° 0 mm 6 m/s 714 mmHg 14%
13:00 +38°C° 0 mm 6 m/s 713 mmHg 13%
14:00 +38°C° 0 mm 6 m/s 713 mmHg 13%
15:00 +36°C° 0 mm 6 m/s 713 mmHg 14%
16:00 +35°C° 0 mm 6 m/s 713 mmHg 15%
17:00 +34°C° 0 mm 6 m/s 713 mmHg 16%
18:00 +33°C° 0 mm 5 m/s 713 mmHg 17%
19:00 +30°C° 0 mm 5 m/s 714 mmHg 19%
20:00 +29°C° 0 mm 5 m/s 714 mmHg 21%
21:00 +28°C° 0 mm 4 m/s 714 mmHg 21%
22:00 +27°C° 0 mm 4 m/s 714 mmHg 22%
23:00 +27°C° 0 mm 4 m/s 714 mmHg 22%

Mâine, 23 Aprilie, Vineri

Timp Temperatura Precipitaţii Vânt Presiune Umiditate
00:00 +26°C° 0 mm 4 m/s 713 mmHg 22%
01:00 +26°C° 0 mm 4 m/s 713 mmHg 22%
02:00 +25°C° 0 mm 3 m/s 713 mmHg 22%
03:00 +25°C° 0 mm 3 m/s 712 mmHg 22%
04:00 +25°C° 0 mm 3 m/s 712 mmHg 22%
05:00 +25°C° 0 mm 3 m/s 712 mmHg 22%
06:00 +26°C° 0 mm 3 m/s 713 mmHg 20%
07:00 +28°C° 0 mm 3 m/s 713 mmHg 18%
08:00 +30°C° 0 mm 3 m/s 713 mmHg 16%
09:00 +33°C° 0 mm 4 m/s 713 mmHg 15%
10:00 +34°C° 0 mm 5 m/s 713 mmHg 14%
11:00 +35°C° 0 mm 5 m/s 713 mmHg 14%
12:00 +35°C° 0 mm 5 m/s 713 mmHg 13%
13:00 +35°C° 0 mm 4 m/s 712 mmHg 13%
14:00 +36°C° 0 mm 4 m/s 712 mmHg 13%
15:00 +35°C° 0 mm 3 m/s 712 mmHg 12%
16:00 +35°C° 0 mm 3 m/s 711 mmHg 12%
17:00 +35°C° 0 mm 2 m/s 711 mmHg 12%
18:00 +32°C° 0 mm 2 m/s 711 mmHg 14%
19:00 +30°C° 0 mm 3 m/s 712 mmHg 16%
20:00 +28°C° 0 mm 3 m/s 712 mmHg 19%
21:00 +28°C° 0 mm 3 m/s 712 mmHg 19%
22:00 +27°C° 0 mm 3 m/s 712 mmHg 20%
23:00 +27°C° 0 mm 3 m/s 712 mmHg 20%

Poimâine, 24 Aprilie, Sâmbătă

Timp Temperatura Precipitaţii Vânt Presiune Umiditate
00:00 +26°C° 0 mm 2 m/s 711 mmHg 21%
01:00 +26°C° 0 mm 2 m/s 711 mmHg 21%
02:00 +25°C° 0 mm 2 m/s 710 mmHg 22%
03:00 +24°C° 0 mm 2 m/s 710 mmHg 23%
04:00 +24°C° 0 mm 2 m/s 710 mmHg 25%
05:00 +23°C° 0 mm 2 m/s 710 mmHg 26%
06:00 +25°C° 0 mm 2 m/s 710 mmHg 23%
07:00 +27°C° 0 mm 2 m/s 711 mmHg 20%
08:00 +29°C° 0 mm 2 m/s 711 mmHg 17%
09:00 +31°C° 0 mm 3 m/s 711 mmHg 16%
10:00 +33°C° 0 mm 3 m/s 711 mmHg 15%
11:00 +34°C° 0 mm 4 m/s 711 mmHg 14%
12:00 +34°C° 0 mm 4 m/s 710 mmHg 13%
13:00 +35°C° 0 mm 3 m/s 710 mmHg 13%
14:00 +35°C° 0 mm 3 m/s 710 mmHg 13%
15:00 +35°C° 0 mm 2 m/s 709 mmHg 13%
16:00 +34°C° 0 mm 2 m/s 709 mmHg 14%
17:00 +33°C° 0 mm 1 m/s 709 mmHg 14%
18:00 +31°C° 0 mm 1 m/s 709 mmHg 16%
19:00 +30°C° 0 mm 2 m/s 710 mmHg 18%
20:00 +28°C° 0 mm 2 m/s 710 mmHg 20%
21:00 +28°C° 0 mm 2 m/s 710 mmHg 22%
22:00 +27°C° 0 mm 2 m/s 710 mmHg 24%
23:00 +27°C° 0 mm 2 m/s 710 mmHg 26%

25 Aprilie, Duminică

Timp Temperatura Precipitaţii Vânt Presiune Umiditate
00:00 +26°C° 0 mm 2 m/s 710 mmHg 28%
01:00 +25°C° 0 mm 2 m/s 710 mmHg 29%
02:00 +25°C° 0 mm 2 m/s 710 mmHg 31%
03:00 +24°C° 0 mm 1 m/s 710 mmHg 32%
04:00 +24°C° 0 mm 1 m/s 709 mmHg 33%
05:00 +23°C° 0 mm 1 m/s 709 mmHg 35%
06:00 +25°C° 0 mm 1 m/s 710 mmHg 31%
07:00 +28°C° 0 mm 2 m/s 710 mmHg 26%
08:00 +30°C° 0 mm 2 m/s 711 mmHg 22%
09:00 +31°C° 0 mm 2 m/s 711 mmHg 20%
10:00 +33°C° 0 mm 3 m/s 711 mmHg 18%
11:00 +34°C° 0 mm 3 m/s 711 mmHg 16%
12:00 +35°C° 0 mm 3 m/s 710 mmHg 15%
13:00 +35°C° 0 mm 3 m/s 710 mmHg 14%
14:00 +36°C° 0 mm 3 m/s 710 mmHg 13%
15:00 +35°C° 0 mm 2 m/s 710 mmHg 14%
16:00 +35°C° 0 mm 2 m/s 709 mmHg 14%
17:00 +34°C° 0 mm 2 m/s 709 mmHg 15%
18:00 +31°C° 0 mm 1 m/s 710 mmHg 16%
19:00 +30°C° 0 mm 1 m/s 710 mmHg 18%
20:00 +26°C° 0 mm 0 m/s 710 mmHg 19%
21:00 +26°C° 0 mm 0 m/s 710 mmHg 19%
22:00 +25°C° 0 mm 0 m/s 710 mmHg 18%
23:00 +25°C° 0 mm 0 m/s 710 mmHg 17%

26 Aprilie, Luni

Timp Temperatura Precipitaţii Vânt Presiune Umiditate
00:00 +26°C° 0 mm 1 m/s 709 mmHg 17%
01:00 +26°C° 0 mm 1 m/s 709 mmHg 16%
02:00 +26°C° 0 mm 1 m/s 709 mmHg 16%
03:00 +25°C° 0 mm 1 m/s 709 mmHg 17%
04:00 +25°C° 0 mm 1 m/s 709 mmHg 19%
05:00 +24°C° 0 mm 2 m/s 709 mmHg 20%
06:00 +26°C° 0 mm 2 m/s 709 mmHg 19%
07:00 +28°C° 0 mm 2 m/s 710 mmHg 17%
08:00 +30°C° 0 mm 2 m/s 710 mmHg 15%
09:00 +31°C° 0 mm 2 m/s 710 mmHg 15%
10:00 +33°C° 0 mm 3 m/s 711 mmHg 15%
11:00 +34°C° 0 mm 3 m/s 711 mmHg 15%
12:00 +34°C° 0 mm 3 m/s 710 mmHg 15%
13:00 +34°C° 0 mm 3 m/s 710 mmHg 16%
14:00 +34°C° 0 mm 3 m/s 710 mmHg 16%
15:00 +34°C° 0 mm 2 m/s 709 mmHg 18%
16:00 +32°C° 0 mm 2 m/s 709 mmHg 19%
17:00 +31°C° 0 mm 1 m/s 709 mmHg 21%
18:00 +30°C° 0 mm 2 m/s 709 mmHg 24%
19:00 +28°C° 0 mm 2 m/s 710 mmHg 27%
20:00 +26°C° 0 mm 3 m/s 710 mmHg 30%
21:00 +25°C° 0 mm 3 m/s 710 mmHg 32%
22:00 +24°C° 0 mm 3 m/s 710 mmHg 33%
23:00 +22°C° 0 mm 3 m/s 710 mmHg 35%

27 Aprilie, Marţi

Timp Temperatura Precipitaţii Vânt Presiune Umiditate
00:00 +22°C° 0 mm 3 m/s 710 mmHg 36%
01:00 +21°C° 0 mm 4 m/s 710 mmHg 37%
02:00 +20°C° 0 mm 4 m/s 710 mmHg 38%
03:00 +20°C° 0 mm 4 m/s 710 mmHg 38%
04:00 +19°C° 0 mm 4 m/s 710 mmHg 38%
05:00 +19°C° 0 mm 3 m/s 710 mmHg 38%
06:00 +21°C° 0 mm 3 m/s 711 mmHg 31%
07:00 +24°C° 0 mm 3 m/s 711 mmHg 25%
08:00 +26°C° 0 mm 3 m/s 711 mmHg 18%
09:00 +27°C° 0 mm 4 m/s 711 mmHg 17%
10:00 +29°C° 0 mm 4 m/s 711 mmHg 16%
11:00 +30°C° 0 mm 4 m/s 711 mmHg 15%
12:00 +32°C° 0 mm 4 m/s 711 mmHg 15%
13:00 +32°C° 0 mm 4 m/s 711 mmHg 15%
14:00 +33°C° 0 mm 4 m/s 711 mmHg 15%
15:00 +32°C° 0 mm 4 m/s 711 mmHg 16%
16:00 +31°C° 0 mm 3 m/s 711 mmHg 18%
17:00 +30°C° 0 mm 3 m/s 711 mmHg 19%
18:00 +29°C° 0 mm 3 m/s 711 mmHg 20%
19:00 +27°C° 0 mm 3 m/s 711 mmHg 22%
20:00 +26°C° 0 mm 3 m/s 711 mmHg 24%
21:00 +25°C° 0 mm 3 m/s 712 mmHg 24%
22:00 +25°C° 0 mm 3 m/s 712 mmHg 24%
23:00 +24°C° 0 mm 3 m/s 712 mmHg 24%
Arată mai mult

Formular de consimțământ

Meteoprog și furnizorii noștri de servicii pot stoca și accesa date personale, precum cookies, identificatori de dispozitiv sau alte tehnologii similare pe dispozitivul dumneavoastră și procesa astfel de date pentru a personaliza conținutul și reclamele, dar și pentru a oferi caracteristici de social media și pentru a analiza traficul.

  • Stocarea și/sau accesarea informațiilor pe dispozitivul dumneavoastră

    Cookies, identificatori de dispozitiv sau alte informații pot fi stocate sau accesate pe dispozitiv în scopurile indicate mai sus.

  • Reclame și conținut personalizat, evaluarea reclamelor și a conținutului, informații despre audiențe și dezvoltarea produselor

    Reclamele și conținutul pot fi personalizate pe baza unui profil. Pot fi adăugate date suplimentare pentru a personaliza mai bine reclamele și conținutul. Performanța reclamelor și conținutului poate fi măsurată. Pot fi obținute informații despre utilizatorii care au văzut reclamele și conținutul. Aceste date pot fi utilizate pentru a dezvolta sau îmbunătăți experiența utilizatorilor, sistemele și software-ul.

Dând clic pe ‘Sunt de acord’, permiteți utilizarea cookie-urilor menționate, a identificatorilor de dispozitiv, balizelor web sau altor tehnologii similare. Setările pot fi modificate din browser-ul dispozitivului dumneavoastră.

În anumite scopuri, interesele legitime pot prima asupra consimțământului. Puteți citi mai multe informații în acest sens în Politica privind Confidențialitatea Datelor și Cookie.